Harlan, KY

6:47 PM EST on November 18, 2019 (GMT -0500)
Harlan

Weather History for KI35 - September, 2019

Change the Weather History Date:

Friday, September 6, 2019

  Actual Average (KLOZ) Record (KLOZ)
Temperature  
Mean Temperature 69 °F -  
Max Temperature 82 °F 81 °F 95 °F (1998)
Min Temperature 56 °F 60 °F 45 °F (1988)
Cooling Degree Days 4    
Growing Degree Days 19 (Base 50)    
Moisture  
Dew Point 59 °F    
Average Humidity 74    
Maximum Humidity 100    
Minimum Humidity 38    
Precipitation  
Precipitation 0.00 in - - ()
Sea Level Pressure  
Sea Level Pressure 29.99 in    
Wind  
Wind Speed 1 mph ()    
Max Wind Speed 8 mph    
Max Gust Speed -    
Visibility 7.6 miles    
Events      
Averages and records for this station are not official NWS values.
T = Trace of Precipitation, MM = Missing Value Source: Averaged Metar Reports

Daily Weather History Graph

Daily Weather History Graph

Search for Another Location

Airport or City:

Astronomy

Sep. 06, 2019 Rise Set
Actual Time 7:08 AM EDT 7:54 PM EDT
Civil Twilight 6:41 AM EDT 8:21 PM EDT
Nautical Twilight 6:10 AM EDT 8:52 PM EDT
Astronomical Twilight 5:38 AM EDT 9:23 PM EDT
Moon 3:04 PM EDT (9/6) 12:21 AM EDT (9/6)
Length of Visible Light 13h 39m
Length of Day
12h 46m
First Quarter, 55% of the Moon is Illuminated
Sep 6
First Quarter
Sep 14
Full
Sep 21
Last Quarter
Sep 28
New
Oct 5
First Quarter

Hourly Weather History & Observations

Time (EDT) Temp. Heat Index Dew Point Humidity Pressure Visibility Wind Dir Wind Speed Gust Speed Precip Events Conditions
12:15 AM 64.8 °F - 59.7 °F 84% 30.02 in 10.0 mi Calm Calm - N/A   Clear
12:35 AM 64.6 °F - 59.7 °F 84% 30.01 in 10.0 mi SW 3.5 mph - N/A   Clear
12:55 AM 63.3 °F - 59.9 °F 89% 30.01 in 10.0 mi Calm Calm - N/A   Clear
1:15 AM 62.2 °F - 59.9 °F 92% 30.01 in 10.0 mi Calm Calm - N/A   Clear
1:35 AM 61.9 °F - 59.7 °F 93% 30.01 in 10.0 mi SW 3.5 mph - N/A   Clear
1:55 AM 61.7 °F - 59.5 °F 93% 30.01 in 10.0 mi Calm Calm - N/A   Clear
2:15 AM 60.4 °F - 59.4 °F 96% 30.01 in 10.0 mi Calm Calm - N/A   Clear
2:35 AM 60.4 °F - 59.2 °F 96% 30.01 in 10.0 mi Calm Calm - N/A   Clear
2:55 AM 59.9 °F - 59.2 °F 97% 30.01 in 10.0 mi Calm Calm - N/A   Clear
3:15 AM 60.3 °F - 59.4 °F 97% 30.01 in 10.0 mi Calm Calm - N/A   Clear
3:35 AM 59.2 °F - 58.5 °F 97% 30.00 in 7.0 mi Calm Calm - N/A   Clear
3:55 AM 59.0 °F - 58.1 °F 97% 30.00 in 10.0 mi Calm Calm - N/A   Clear
4:15 AM 57.7 °F - 57.6 °F 99% 30.00 in 2.0 mi Calm Calm - N/A   Scattered Clouds
4:35 AM 58.5 °F - 58.3 °F 99% 30.00 in 7.0 mi Calm Calm - N/A   Scattered Clouds
4:55 AM 57.4 °F - 57.2 °F 99% 30.00 in 0.5 mi Calm Calm - N/A   Overcast
5:15 AM 56.8 °F - 56.8 °F 100% 30.00 in 0.2 mi Calm Calm - N/A   Overcast
5:35 AM 57.2 °F - 57.2 °F 100% 30.00 in 0.2 mi Calm Calm - N/A   Overcast
5:55 AM 57.4 °F - 57.4 °F 100% 30.01 in 0.2 mi Calm Calm - N/A   Overcast
6:15 AM 57.2 °F - 57.2 °F 100% 30.01 in 0.2 mi Calm Calm - N/A   Overcast
6:35 AM 57.2 °F - 57.2 °F 100% 30.01 in 0.2 mi Calm Calm - N/A   Overcast
6:55 AM 57.4 °F - 57.4 °F 100% 30.02 in 0.2 mi Calm Calm - N/A   Overcast
7:15 AM 57.7 °F - 57.7 °F 100% 30.02 in 0.2 mi Calm Calm - N/A   Overcast
7:35 AM 57.6 °F - 57.6 °F 100% 30.02 in 0.2 mi Calm Calm - N/A   Overcast
7:55 AM 57.4 °F - 57.4 °F 100% 30.02 in 0.2 mi Calm Calm - N/A   Overcast
8:15 AM 57.9 °F - 57.9 °F 100% 30.03 in 0.2 mi Calm Calm - N/A   Overcast
8:35 AM 57.9 °F - 57.9 °F 100% 30.03 in 0.2 mi Calm Calm - N/A   Overcast
8:55 AM 58.1 °F - 58.1 °F 100% 30.03 in 0.2 mi Calm Calm - N/A   Overcast
9:15 AM 58.3 °F - 58.3 °F 100% 30.03 in 0.2 mi Calm Calm - N/A   Overcast
9:35 AM 58.5 °F - 58.3 °F 99% 30.03 in 1.2 mi Calm Calm - N/A   Overcast
9:55 AM 61.0 °F - 60.3 °F 97% 30.03 in 5.0 mi Calm Calm - N/A   Mostly Cloudy
10:15 AM 62.2 °F - 59.4 °F 90% 30.02 in 7.0 mi Calm Calm - N/A   Scattered Clouds
10:35 AM 64.9 °F - 59.5 °F 83% 30.02 in 10.0 mi West 3.5 mph - N/A   Clear
10:55 AM 68.7 °F - 59.9 °F 73% 30.03 in 10.0 mi SSW 3.5 mph - N/A   Clear
11:15 AM 70.5 °F - 60.1 °F 69% 30.02 in 10.0 mi Calm Calm - N/A   Clear
11:35 AM 72.3 °F - 59.7 °F 64% 30.02 in 10.0 mi West 3.5 mph - N/A   Clear
11:55 AM 72.7 °F - 57.6 °F 59% 30.02 in 10.0 mi WSW 4.6 mph - N/A   Clear
12:15 PM 75.2 °F - 57.9 °F 55% 30.01 in 10.0 mi Calm Calm - N/A   Clear
12:35 PM 76.1 °F - 58.3 °F 54% 30.00 in 10.0 mi SW 4.6 mph - N/A   Clear
12:55 PM 77.0 °F - 52.5 °F 42% 30.00 in 10.0 mi WNW 5.8 mph - N/A   Clear
1:15 PM 78.3 °F - 52.5 °F 41% 29.99 in 10.0 mi North 6.9 mph - N/A   Clear
1:35 PM 79.7 °F - 52.3 °F 39% 29.99 in 10.0 mi North 5.8 mph - N/A   Clear
1:55 PM 79.3 °F - 51.6 °F 38% 29.98 in 10.0 mi Calm Calm - N/A   Clear
2:15 PM 80.6 °F - 52.7 °F 38% 29.98 in 10.0 mi NW 5.8 mph - N/A   Clear
2:35 PM 81.1 °F 80.7 °F 54.0 °F 39% 29.96 in 10.0 mi WNW 4.6 mph - N/A   Clear
2:55 PM 81.1 °F 80.9 °F 55.4 °F 41% 29.96 in 10.0 mi WSW 4.6 mph - N/A   Clear
3:15 PM 81.1 °F 81.0 °F 56.1 °F 42% 29.96 in 10.0 mi WSW 5.8 mph - N/A   Clear
3:35 PM 82.0 °F 81.5 °F 55.2 °F 40% 29.96 in 10.0 mi WSW 8.1 mph - N/A   Clear
3:55 PM 82.2 °F 81.6 °F 55.6 °F 40% 29.94 in 10.0 mi WSW 5.8 mph - N/A   Clear
4:15 PM 82.4 °F 82.0 °F 56.8 °F 42% 29.94 in 10.0 mi SW 8.1 mph - N/A   Clear
4:35 PM 82.4 °F 82.2 °F 57.7 °F 43% 29.94 in 10.0 mi WSW 6.9 mph - N/A   Clear
4:55 PM 82.2 °F 82.0 °F 57.7 °F 43% 29.94 in 10.0 mi SW 5.8 mph - N/A   Clear
5:15 PM 82.4 °F 82.0 °F 57.2 °F 42% 29.95 in 10.0 mi SW 8.1 mph - N/A   Clear
5:35 PM 81.9 °F 81.7 °F 57.4 °F 43% 29.95 in 10.0 mi SW 6.9 mph - N/A   Clear
5:55 PM 82.6 °F 82.3 °F 57.9 °F 43% 29.95 in 10.0 mi West 4.6 mph - N/A   Clear
6:15 PM 81.9 °F 81.6 °F 56.7 °F 42% 29.96 in 10.0 mi West 5.8 mph - N/A   Clear
6:35 PM 81.3 °F 81.3 °F 57.2 °F 44% 29.95 in 10.0 mi West 4.6 mph - N/A   Clear
6:55 PM 79.2 °F - 58.1 °F 48% 29.95 in 10.0 mi SW 3.5 mph - N/A   Mostly Cloudy
7:15 PM 78.8 °F - 59.2 °F 51% 29.94 in 10.0 mi Calm Calm - N/A   Overcast
7:35 PM 77.0 °F - 60.6 °F 57% 29.95 in 10.0 mi Calm Calm - N/A   Overcast
7:55 PM 75.0 °F - 61.7 °F 63% 29.95 in 10.0 mi Calm Calm - N/A   Overcast
8:15 PM 74.1 °F - 62.1 °F 66% 29.95 in 10.0 mi Calm Calm - N/A   Overcast
8:35 PM 73.0 °F - 61.9 °F 68% 29.96 in 7.0 mi Calm Calm - N/A   Overcast
8:55 PM 72.7 °F - 62.8 °F 71% 29.96 in 10.0 mi Calm Calm - N/A   Overcast
9:15 PM 71.2 °F - 63.0 °F 75% 29.96 in 10.0 mi Calm Calm - N/A   Mostly Cloudy
9:35 PM 71.1 °F - 62.1 °F 73% 29.97 in 10.0 mi Calm Calm - N/A   Overcast
9:55 PM 70.9 °F - 62.1 °F 74% 29.98 in 10.0 mi Calm Calm - N/A   Overcast
10:15 PM 70.5 °F - 61.5 °F 73% 29.98 in 10.0 mi Calm Calm - N/A   Overcast
10:35 PM 68.5 °F - 62.8 °F 82% 29.98 in 10.0 mi Calm Calm - N/A   Overcast
10:55 PM 68.7 °F - 63.0 °F 82% 29.98 in 10.0 mi Calm Calm - N/A   Overcast
11:15 PM 68.2 °F - 63.3 °F 84% 29.98 in 10.0 mi Calm Calm - N/A   Overcast
11:35 PM 68.0 °F - 63.5 °F 85% 29.97 in 10.0 mi Calm Calm - N/A   Overcast
11:55 PM 68.7 °F - 63.7 °F 84% 29.96 in 10.0 mi Calm Calm - N/A   Overcast